Regional Weather Roundup
Issued by NWS Kansas City/Pleasant Hill, MO

Home | Current Version | Previous Version | Graphics & Text | Print | Product List | Glossary Off
Versions: 1 2 3 4 5 6 7 8 9 10 11 12 13 14 15 16 17 18 19 20 21 22 23 24 25 26

000
ASUS43 KEAX 230910
RWREAX

WEATHER ROUNDUP FOR EASTERN KANSAS AND NORTHWEST MISSOURI
NATIONAL WEATHER SERVICE KANSAS CITY/PLEASANT HILL MO
400 AM CDT MON APR 23 2018

KSZ040-057-103>105-MOZ028-029-037-043-231000-
...KANSAS CITY METROPOLITAN AREA...

CITY           SKY/WX    TMP DP  RH WIND       PRES   REMARKS
K.C. INTL      CLOUDY    53  31  42 N8        30.09R
K.C. DOWNTOWN  CLOUDY    59  27  29 NE7       30.07S
LEES SUMMIT    CLOUDY    55  30  38 NE9       30.07R
OLATHE - IXD   CLOUDY    56  32  40 N9        30.08S
OLATHE - OJC   CLOUDY    56  29  35 NE10      30.07R
LAWRENCE       CLOUDY    52  35  52 NW8       30.09R

$$

MOZ001>008-011>017-020>025-030>033-038>040-044>046-053-054-231000-
...NORTHERN AND CENTRAL MISSOURI...

CITY           SKY/WX    TMP DP  RH WIND       PRES   REMARKS
ST. JOSEPH     CLEAR     47  30  51 N8        30.12R
MOSBY          CLOUDY    57  27  30 NE5       30.09R
WARRENSBURG    CLOUDY    52  32  46 NW6       30.06R
WHITEMAN AFB   CLOUDY    53  34  48 NE7       30.01R
CLINTON        CLOUDY    55  43  62 NE8       30.03R
SEDALIA        CLOUDY    57  44  62 NE10      30.04S
WARSAW         NOT AVBL
CHILLICOTHE      N/A     57  30  35 NE9       30.10S
KIRKSVILLE     PTCLDY    52  33  48 NE10      30.11S

$$

MOZ041-047>049-056>058-063>065-088>090-097-231000-
...EASTERN AND SOUTHERN MISSOURI...

CITY           SKY/WX    TMP DP  RH WIND       PRES   REMARKS
ST. LOUIS INTL LGT RAIN  55  42  61 NE10      30.00F
SPIRIT OF STL  LGT RAIN  55  42  61 NE7       29.99F
COLUMBIA       CLOUDY    55  45  68 NE14      30.02S
JEFFERSON CITY CLOUDY    57  47  69 VRB5      30.00F
ROLLA          CLOUDY    52  47  83 NE9       29.98S
OSAGE BEACH    CLOUDY    53  51  93 NE9       29.99S
SPRINGFIELD    CLOUDY    52  51  97 N12       29.96R FOG
BRANSON        FOG       50  50 100 NW9       29.94R VSB 1
JOPLIN         CLOUDY    52  50  93 N6        30.00S
WEST PLAINS    LGT RAIN  55  53  93 N8        29.89S

$$

IAZ060-094-KSZ022-034>040-054-083-096-NEZ052-066-093-231000-
...KANSAS...SOUTHEAST NEBRASKA AND IOWA...

CITY           SKY/WX    TMP DP  RH WIND       PRES   REMARKS
TOPEKA         MOCLDY    52  41  66 N6        30.09F
MANHATTAN      PTCLDY    47  43  86 CALM      30.12S
EMPORIA        CLOUDY    51  41  68 N5        30.08S
CHANUTE        CLOUDY    54  45  71 NW5       30.05S
WICHITA        MOCLDY    51  45  79 N8        30.09S
OMAHA          CLEAR     42  31  64 N5        30.17S
LINCOLN        CLEAR     42  31  64 N7        30.18R
FALLS CITY     PTCLDY    45  34  65 N5        30.13S
LAMONI         CLOUDY    52  31  44 NE8       30.14R
DES MOINES     CLOUDY    51  30  44 E8        30.17S

$$





USA.gov is the U.S. government's official web portal to all federal, state and local government web resources and services.